W4MLN-3 Weather Reports


time (UTC)temp
C
wind
direction
speed
KPH
gust
KPH
rain 1hr
cm
rain 24hr
cm
rain mn
cm
humidity
%
barometer
mb
20260906083024 18 0 0.0 0.0 0.00 0.05 0.00 94 1015.0
20260906082503 18 0 0.0 0.0 0.00 0.05 0.00 93 1015.1
20260906082024 18 0 0.0 0.0 0.00 0.05 0.00 94 1015.2
20260906081503 18 0 0.0 0.0 0.00 0.05 0.00 94 1015.1
20260906080524 17 0 0.0 0.0 0.00 0.05 0.00 93 1015.2
20260906080003 17 0 0.0 0.0 0.00 0.05 0.00 93 1015.3
20260906075503 17 0 0.0 0.0 0.00 0.05 0.00 93 1015.3
20260906075003 17 0 0.0 0.0 0.00 0.05 0.00 93 1015.2
20260906074503 17 0 0.0 0.0 0.00 0.05 0.00 93 1015.3
20260906074003 17 0 0.0 0.0 0.00 0.05 0.00 93 1015.3
20260906073503 17 0 0.0 0.0 0.00 0.05 0.00 93 1015.5
20260906073003 18 0 0.0 0.0 0.00 0.05 0.00 93 1015.6
20260906072503 18 0 0.0 0.0 0.00 0.05 0.00 93 1015.5
20260906072045 18 0 0.0 0.0 0.00 0.05 0.00 92 1015.6
20260906071503 18 0 0.0 0.0 0.00 0.05 0.00 92 1015.4
20260906071003 18 0 0.0 0.0 0.00 0.05 0.00 93 1015.3
20260906070503 18 0 0.0 0.0 0.00 0.05 0.00 92 1015.4
20260906070024 18 0 0.0 0.0 0.00 0.05 0.00 92 1015.3
20260906065503 18 0 0.0 0.0 0.00 0.05 0.00 93 1015.4
20260906065003 18 0 0.0 0.0 0.00 0.05 0.00 93 1015.5
20260906064503 18 202 0.0 3.2 0.00 0.05 0.00 93 1015.7
20260906064024 18 202 0.0 3.2 0.00 0.05 0.00 92 1015.7
20260906063545 18 196 0.0 1.6 0.00 0.05 0.00 92 1016.1
20260906063003 18 196 0.0 1.6 0.00 0.05 0.00 92 1016.1
20260906062503 18 0 0.0 0.0 0.00 0.05 0.00 92 1016.1
20260906062003 18 0 0.0 0.0 0.00 0.05 0.00 92 1016.1
20260906061503 18 0 0.0 0.0 0.00 0.05 0.00 92 1016.1
20260906061003 18 0 0.0 0.0 0.00 0.05 0.00 92 1016.1
20260906060503 18 0 0.0 0.0 0.00 0.05 0.00 92 1016.2
20260906060003 18 217 0.0 4.8 0.00 0.05 0.00 92 1016.3
20260906055503 18 217 0.0 4.8 0.00 0.05 0.00 92 1016.3
20260906055003 18 269 0.0 1.6 0.00 0.05 0.00 91 1016.4
20260906054503 18 269 0.0 1.6 0.00 0.05 0.00 91 1016.5
20260906054024 18 269 0.0 1.6 0.00 0.05 0.00 91 1016.5
20260906053503 18 0 0.0 0.0 0.00 0.05 0.00 91 1016.5
20260906053003 18 269 0.0 1.6 0.00 0.05 0.00 91 1016.4
20260906052503 18 269 0.0 1.6 0.00 0.05 0.00 91 1016.4
20260906052003 18 269 1.6 3.2 0.00 0.05 0.00 91 1016.5
20260906051503 18 269 1.6 3.2 0.00 0.05 0.00 90 1016.4
20260906051003 18 269 0.0 3.2 0.00 0.05 0.00 90 1016.4
20260906050503 18 0 0.0 0.0 0.00 0.05 0.00 90 1016.4
20260906050003 18 0 0.0 0.0 0.00 0.05 0.00 89 1016.5
20260906045524 18 0 0.0 0.0 0.00 0.05 0.00 89 1016.6
20260906045003 18 264 0.0 1.6 0.00 0.05 0.00 89 1016.6
20260906044524 18 264 0.0 1.6 0.00 0.05 0.00 89 1016.6
20260906044003 18 265 0.0 3.2 0.00 0.05 0.00 89 1016.7
20260906043503 18 265 0.0 3.2 0.00 0.05 0.00 89 1016.7
20260906043003 19 265 0.0 3.2 0.00 0.05 0.00 88 1016.8
20260906042503 19 278 3.2 9.7 0.00 0.05 0.00 89 1016.8
20260906042018 19 280 3.2 9.7 0.00 0.05 0.00 89 1016.7
20260906041503 19 270 3.2 9.7 0.00 0.05 0.00 90 1016.8
20260906041003 19 244 1.6 4.8 0.00 0.05 0.00 90 1016.8
20260906040503 19 177 0.0 3.2 0.00 0.05 0.00 89 1016.9
20260906040003 19 0 0.0 0.0 0.00 0.05 0.00 89 1016.9
20260906035503 19 0 0.0 0.0 0.00 0.05 0.05 88 1016.9
20260906035018 19 177 0.0 3.2 0.00 0.05 0.05 88 1016.8
20260906034503 19 177 0.0 3.2 0.00 0.05 0.05 88 1016.8
20260906034010 19 177 0.0 1.6 0.00 0.05 0.05 89 1016.8
20260906033503 19 177 1.6 4.8 0.00 0.05 0.05 89 1016.9
20260906033003 19 177 3.2 4.8 0.00 0.05 0.05 89 1016.8
20260906032503 19 183 3.2 6.4 0.00 0.05 0.05 89 1016.7
20260906032003 20 182 1.6 6.4 0.00 0.05 0.05 88 1016.6
20260906031503 20 164 0.0 3.2 0.00 0.05 0.05 88 1016.6
20260906031003 20 164 1.6 3.2 0.00 0.05 0.05 87 1016.6
20260906030503 20 164 1.6 3.2 0.00 0.05 0.05 87 1016.7
20260906030003 20 164 1.6 3.2 0.00 0.05 0.05 87 1016.8
20260906025503 20 164 1.6 6.4 0.00 0.05 0.05 86 1016.9
20260906025003 20 160 1.6 6.4 0.00 0.05 0.05 86 1017.0
20260906024503 20 152 3.2 6.4 0.00 0.05 0.05 85 1016.9
20260906024003 20 152 3.2 4.8 0.00 0.05 0.05 84 1016.7
20260906023503 20 174 1.6 4.8 0.00 0.05 0.05 83 1016.7
20260906023003 20 277 0.0 4.8 0.00 0.05 0.05 83 1016.7
20260906022503 21 316 0.0 3.2 0.00 0.05 0.05 82 1016.7
20260906022003 21 316 0.0 3.2 0.00 0.05 0.05 81 1016.7
20260906021503 21 316 0.0 3.2 0.00 0.05 0.05 80 1016.7
20260906021003 21 315 0.0 1.6 0.00 0.05 0.05 80 1016.8
20260906020503 21 315 0.0 1.6 0.00 0.05 0.05 79 1016.8
20260906020003 21 316 0.0 3.2 0.00 0.05 0.05 79 1016.8
20260906015503 22 316 1.6 3.2 0.00 0.05 0.05 79 1016.8
20260906015004 22 316 0.0 3.2 0.00 0.05 0.05 78 1016.7
20260906014503 22 316 0.0 3.2 0.00 0.05 0.05 78 1016.6
20260906014003 22 318 1.6 6.4 0.00 0.05 0.05 77 1016.4
20260906013503 22 314 3.2 6.4 0.00 0.05 0.05 76 1016.5
20260906013003 22 307 3.2 6.4 0.00 0.05 0.05 76 1016.6
20260906012503 22 313 4.8 12.9 0.00 0.05 0.05 75 1016.4
20260906012003 22 314 4.8 12.9 0.00 0.05 0.05 75 1016.3
20260906011503 22 313 4.8 14.5 0.00 0.05 0.05 75 1016.2
20260906011003 22 317 4.8 16.1 0.00 0.05 0.05 74 1016.2
20260906010503 22 320 4.8 16.1 0.00 0.05 0.05 73 1016.3
20260906010004 22 328 4.8 12.9 0.00 0.05 0.05 73 1016.2
20260906005503 22 336 4.8 16.1 0.00 0.05 0.05 72 1016.1
20260906005003 22 342 4.8 16.1 0.00 0.05 0.05 72 1016.2
20260906004503 22 340 3.2 12.9 0.00 0.05 0.05 71 1016.2
20260906004003 22 334 3.2 12.9 0.00 0.05 0.05 70 1016.1
20260906003503 23 332 4.8 11.3 0.00 0.05 0.05 70 1016.0
20260906003003 23 320 4.8 12.9 0.00 0.05 0.05 70 1016.0
20260906002503 23 324 4.8 14.5 0.00 0.05 0.05 69 1016.0
20260906002003 23 333 3.2 14.5 0.00 0.05 0.05 68 1015.9
20260906001503 23 308 3.2 9.7 0.00 0.05 0.05 68 1015.9
20260906001024 23 312 3.2 9.7 0.00 0.05 0.05 67 1015.7
20260906000503 23 310 3.2 9.7 0.00 0.05 0.05 67 1015.7
20260906000003 23 297 1.6 6.4 0.00 0.05 0.05 66 1015.7
20260905235503 23 316 1.6 6.4 0.00 0.05 0.05 65 1015.6
20260905235003 24 317 3.2 6.4 0.00 0.05 0.05 65 1015.6
20260905234503 24 316 3.2 8.0 0.00 0.05 0.05 63 1015.6
20260905234003 24 347 3.2 14.5 0.00 0.05 0.05 62 1015.6
20260905233503 25 350 3.2 14.5 0.00 0.05 0.05 62 1015.7
20260905233003 25 349 4.8 12.9 0.00 0.05 0.05 61 1015.7
20260905232503 25 1 4.8 14.5 0.00 0.05 0.05 61 1015.8
20260905232003 25 357 3.2 14.5 0.00 0.05 0.05 60 1015.8
20260905231503 26 336 4.8 14.5 0.00 0.05 0.05 60 1015.7
20260905231003 26 330 4.8 14.5 0.00 0.05 0.05 58 1015.7
20260905230606 26 339 4.8 16.1 0.00 0.05 0.05 58 1015.7
20260905230003 26 1 4.8 16.1 0.00 0.05 0.05 56 1015.7
20260905225503 26 352 4.8 12.9 0.00 0.05 0.05 55 1015.6
20260905225003 26 336 4.8 14.5 0.00 0.05 0.05 55 1015.7
20260905224503 27 325 6.4 14.5 0.00 0.05 0.05 55 1015.8
20260905224003 27 308 6.4 14.5 0.00 0.05 0.05 55 1015.8
20260905223503 27 303 6.4 14.5 0.00 0.05 0.05 55 1015.7
20260905223003 27 327 6.4 17.7 0.00 0.05 0.05 55 1015.9
20260905222503 27 328 6.4 17.7 0.00 0.05 0.05 54 1015.8
20260905222003 27 298 8.0 19.3 0.00 0.05 0.05 56 1015.8
20260905221503 27 319 8.0 19.3 0.00 0.05 0.05 54 1015.8
20260905221003 27 351 6.4 16.1 0.00 0.05 0.05 54 1015.7
20260905220503 27 337 6.4 14.5 0.00 0.05 0.05 53 1015.7
20260905220003 27 326 6.4 14.5 0.00 0.05 0.05 54 1015.7
20260905215503 27 343 8.0 17.7 0.00 0.05 0.05 53 1015.7
20260905215003 27 350 8.0 19.3 0.00 0.05 0.05 52 1015.7
20260905214503 28 344 8.0 19.3 0.00 0.05 0.05 52 1015.7
20260905214003 28 335 6.4 16.1 0.00 0.05 0.05 52 1015.7
20260905213524 28 340 8.0 20.9 0.00 0.05 0.05 52 1015.6
20260905213003 28 345 8.0 20.9 0.00 0.05 0.05 51 1015.6
20260905212503 28 337 6.4 19.3 0.00 0.05 0.05 52 1015.6
20260905212003 28 340 6.4 14.5 0.00 0.05 0.05 53 1015.7
20260905211503 28 341 8.0 17.7 0.00 0.05 0.05 51 1015.8
20260905211003 28 330 8.0 22.5 0.00 0.05 0.05 50 1015.7
20260905210503 28 322 8.0 24.1 0.00 0.05 0.05 49 1015.7
20260905210003 28 331 8.0 24.1 0.00 0.05 0.05 48 1015.7
20260905205503 28 327 8.0 17.7 0.00 0.05 0.05 48 1015.7
20260905205003 28 325 6.4 17.7 0.00 0.05 0.05 50 1015.7
20260905204503 28 348 6.4 14.5 0.00 0.05 0.05 48 1015.7
20260905204003 28 359 8.0 20.9 0.00 0.05 0.05 49 1015.6
20260905203503 28 1 6.4 20.9 0.00 0.05 0.05 48 1015.7
20260905203003 28 7 4.8 14.5 0.00 0.05 0.05 50 1015.8
20260905202503 28 355 6.4 12.9 0.00 0.05 0.05 51 1015.8
20260905202003 28 321 6.4 16.1 0.00 0.05 0.05 52 1015.7
20260905201503 27 348 6.4 16.1 0.00 0.05 0.05 54 1015.7
20260905201003 27 30 6.4 14.5 0.00 0.05 0.05 57 1015.6
20260905200503 27 311 9.7 24.1 0.00 0.05 0.05 58 1015.7
20260905200003 26 291 12.9 25.7 0.00 0.05 0.05 55 1015.7
20260905195503 26 287 9.7 25.7 0.00 0.05 0.05 58 1015.6
20260905195004 26 289 8.0 20.9 0.00 0.05 0.05 58 1015.5
20260905194503 25 292 8.0 20.9 0.00 0.05 0.05 57 1015.4
20260905194003 25 290 9.7 20.9 0.00 0.05 0.05 58 1015.4
20260905193503 25 289 8.0 20.9 0.00 0.05 0.05 57 1015.4
20260905193003 25 303 4.8 17.7 0.00 0.05 0.05 59 1015.4
20260905192503 25 305 6.4 17.7 0.00 0.05 0.05 58 1015.5
20260905192024 25 306 6.4 17.7 0.00 0.05 0.05 58 1015.5
20260905191503 24 319 4.8 12.9 0.00 0.05 0.05 61 1015.5
20260905191003 24 326 4.8 14.5 0.00 0.05 0.05 62 1015.7
20260905190503 23 322 4.8 14.5 0.00 0.05 0.05 63 1015.6
20260905190024 23 292 3.2 14.5 0.00 0.05 0.05 63 1015.5
20260905185503 23 323 3.2 6.4 0.00 0.05 0.05 65 1015.4
20260905185003 23 352 3.2 6.4 0.00 0.05 0.05 67 1015.7
20260905184503 23 327 3.2 12.9 0.00 0.05 0.05 68 1015.6
20260905184003 23 324 4.8 12.9 0.00 0.05 0.05 69 1015.8
20260905183524 22 358 4.8 12.9 0.00 0.05 0.05 70 1015.9
20260905183024 22 2 4.8 12.9 0.00 0.05 0.05 71 1016.0
20260905182503 22 325 4.8 11.3 0.03 0.05 0.05 73 1016.1
20260905182003 21 305 6.4 16.1 0.05 0.05 0.05 75 1016.4
20260905181503 21 311 4.8 16.1 0.05 0.05 0.05 77 1016.6
20260905181003 20 312 4.8 16.1 0.05 0.05 0.05 79 1016.8
20260905180503 20 292 1.6 14.5 0.05 0.05 0.05 81 1017.1
20260905180024 20 239 1.6 4.8 0.05 0.05 0.05 85 1017.2
20260905175503 20 184 0.0 3.2 0.05 0.05 0.05 84 1017.0
20260905175003 20 186 1.6 6.4 0.05 0.05 0.05 84 1017.2
20260905174503 21 213 3.2 6.4 0.05 0.05 0.05 82 1017.2
20260905174003 21 278 4.8 12.9 0.05 0.05 0.05 81 1017.5
20260905173503 21 295 6.4 14.5 0.05 0.05 0.05 76 1017.9
20260905173003 21 313 6.4 22.5 0.05 0.05 0.05 77 1018.2
20260905172503 22 328 6.4 22.5 0.03 0.03 0.03 74 1018.5
20260905172003 22 334 6.4 20.9 0.00 0.00 0.00 71 1018.7
20260905171503 22 335 6.4 17.7 0.00 0.00 0.00 69 1018.8
20260905171003 23 328 8.0 19.3 0.00 0.00 0.00 67 1018.9
20260905170503 23 317 8.0 24.1 0.00 0.00 0.00 65 1019.2
20260905170003 23 319 8.0 24.1 0.00 0.00 0.00 64 1019.4
20260905165503 24 323 6.4 19.3 0.00 0.00 0.00 63 1019.2
20260905165003 24 334 8.0 27.4 0.00 0.00 0.00 62 1019.0
20260905164503 25 329 9.7 27.4 0.00 0.00 0.00 62 1019.0
20260905164003 25 332 11.3 29.0 0.00 0.00 0.00 63 1019.1
20260905163503 26 339 11.3 29.0 0.00 0.00 0.00 63 1019.2
20260905163003 26 326 9.7 20.9 0.00 0.00 0.00 67 1019.0
20260905162503 27 318 8.0 19.3 0.00 0.00 0.00 67 1018.7
20260905162024 27 319 6.4 19.3 0.00 0.00 0.00 65 1018.8
20260905161503 27 334 8.0 16.1 0.00 0.00 0.00 65 1018.5
20260905161003 27 329 9.7 25.7 0.00 0.00 0.00 63 1018.4
20260905160503 28 319 9.7 25.7 0.00 0.00 0.00 62 1018.2
20260905160003 28 312 8.0 25.7 0.00 0.00 0.00 63 1018.4
20260905155524 28 322 9.7 27.4 0.00 0.00 0.00 63 1018.4
20260905155003 28 328 9.7 27.4 0.00 0.00 0.00 63 1018.4
20260905154503 27 306 9.7 19.3 0.00 0.00 0.00 67 1018.7
20260905154024 27 295 9.7 19.3 0.00 0.00 0.00 66 1018.7
20260905153503 27 296 9.7 22.5 0.00 0.00 0.00 65 1018.4
20260905153003 28 312 8.0 19.3 0.00 0.00 0.00 64 1018.6
20260905152503 28 345 8.0 16.1 0.00 0.00 0.00 62 1018.6
20260905152003 28 353 8.0 16.1 0.00 0.00 0.00 63 1018.5
20260905151503 28 339 8.0 16.1 0.00 0.00 0.00 63 1018.4
20260905151003 28 321 6.4 16.1 0.00 0.00 0.00 65 1018.2
20260905150503 28 325 8.0 16.1 0.00 0.00 0.00 67 1018.2
20260905150003 28 316 6.4 16.1 0.00 0.00 0.00 64 1018.2
20260905145503 28 314 4.8 14.5 0.00 0.00 0.00 66 1018.1
20260905145024 27 313 6.4 19.3 0.00 0.00 0.00 67 1018.0
20260905144503 27 325 8.0 19.3 0.00 0.00 0.00 65 1018.2
20260905144025 27 344 8.0 17.7 0.00 0.00 0.00 65 1018.2
20260905143504 27 321 8.0 20.9 0.00 0.00 0.00 67 1018.2
20260905143003 27 312 6.4 20.9 0.00 0.00 0.00 65 1018.4
20260905142524 27 326 4.8 14.5 0.00 0.00 0.00 68 1018.3
20260905142003 27 327 6.4 14.5 0.00 0.00 0.00 67 1018.5
20260905141503 27 332 8.0 19.3 0.00 0.00 0.00 67 1018.4
20260905141003 27 334 8.0 19.3 0.00 0.00 0.00 66 1018.4
20260905140503 27 322 4.8 16.1 0.00 0.00 0.00 67 1018.3
20260905140004 27 319 4.8 9.7 0.00 0.00 0.00 67 1018.3
20260905135524 27 317 3.2 9.7 0.00 0.00 0.00 68 1018.1
20260905135003 27 342 3.2 6.4 0.00 0.00 0.00 71 1018.1
20260905134503 26 325 3.2 8.0 0.00 0.00 0.00 71 1018.2
20260905134024 26 306 3.2 8.0 0.00 0.00 0.00 73 1018.1
20260905133503 26 354 1.6 9.7 0.00 0.00 0.00 72 1018.1
20260905133003 26 340 3.2 9.7 0.00 0.00 0.00 74 1018.2
20260905132503 25 331 3.2 8.0 0.00 0.00 0.00 75 1018.2
20260905132003 25 329 3.2 9.7 0.00 0.00 0.00 77 1018.4
20260905131503 25 24 3.2 11.3 0.00 0.00 0.00 78 1018.4
20260905131003 24 34 3.2 11.3 0.00 0.00 0.00 81 1018.4
20260905130503 23 22 1.6 8.0 0.00 0.00 0.00 82 1018.4
20260905130003 23 43 1.6 8.0 0.00 0.00 0.00 84 1018.4
20260905125503 23 36 1.6 4.8 0.00 0.00 0.00 85 1018.5
20260905125003 22 35 1.6 6.4 0.00 0.00 0.00 86 1018.6
20260905124503 22 21 1.6 6.4 0.00 0.00 0.00 87 1018.6
20260905124045 22 33 1.6 6.4 0.00 0.00 0.00 89 1018.5
20260905123503 21 68 0.0 4.8 0.00 0.00 0.00 91 1018.5
20260905123003 21 102 0.0 3.2 0.00 0.00 0.00 91 1018.4
20260905122503 21 122 0.0 4.8 0.00 0.00 0.00 92 1018.4
20260905122024 21 140 1.6 4.8 0.00 0.00 0.00 92 1018.3
20260905121503 21 174 0.0 3.2 0.00 0.00 0.00 92 1018.2
20260905121003 21 174 0.0 3.2 0.00 0.00 0.00 92 1018.2
20260905120503 20 174 0.0 3.2 0.00 0.00 0.00 93 1018.1
20260905120045 20 174 0.0 3.2 0.00 0.00 0.00 92 1018.2
20260905115503 20 174 1.6 4.8 0.00 0.00 0.00 92 1018.2
20260905115003 20 174 1.6 4.8 0.00 0.00 0.00 92 1018.2
20260905114503 20 181 1.6 4.8 0.00 0.00 0.00 92 1017.9
20260905114003 20 182 1.6 4.8 0.00 0.00 0.00 92 1017.8
20260905113503 20 182 1.6 4.8 0.00 0.00 0.00 92 1017.8
20260905113003 20 182 1.6 3.2 0.00 0.00 0.00 91 1017.9
20260905112503 20 182 1.6 3.2 0.00 0.00 0.00 91 1017.8
20260905112003 20 182 1.6 3.2 0.00 0.00 0.00 91 1017.8
20260905111503 20 182 1.6 3.2 0.00 0.00 0.00 91 1017.8
20260905111003 19 182 1.6 3.2 0.00 0.00 0.00 91 1017.8
20260905110503 19 213 1.6 4.8 0.00 0.00 0.00 91 1017.7
20260905110003 19 218 1.6 4.8 0.00 0.00 0.00 91 1017.7
20260905105503 19 236 1.6 3.2 0.00 0.00 0.00 90 1017.7
20260905105003 19 236 1.6 3.2 0.00 0.00 0.00 90 1017.6
20260905104503 19 236 1.6 3.2 0.00 0.00 0.00 90 1017.6
20260905104003 19 236 1.6 4.8 0.00 0.00 0.00 90 1017.7
20260905103503 19 236 1.6 4.8 0.00 0.00 0.00 90 1017.7
20260905103024 19 236 1.6 4.8 0.00 0.00 0.00 90 1017.7
20260905102503 19 236 0.0 3.2 0.00 0.00 0.00 90 1017.7
20260905102003 19 236 1.6 3.2 0.00 0.00 0.00 90 1017.6
20260905101503 19 236 1.6 3.2 0.00 0.00 0.00 90 1017.6
20260905101003 19 236 1.6 3.2 0.00 0.00 0.00 90 1017.5
20260905100524 19 236 0.0 3.2 0.00 0.00 0.00 90 1017.6
20260905100003 19 236 0.0 3.2 0.00 0.00 0.00 90 1017.5
20260905095503 19 236 0.0 3.2 0.00 0.00 0.00 90 1017.5
20260905095003 19 215 1.6 8.0 0.00 0.00 0.00 90 1017.4
20260905094503 19 193 1.6 8.0 0.00 0.00 0.00 91 1017.4
20260905094003 19 155 0.0 3.2 0.00 0.00 0.00 90 1017.5
20260905093503 19 155 1.6 3.2 0.00 0.00 0.00 90 1017.3
20260905093024 19 136 1.6 4.8 0.00 0.00 0.00 90 1017.3
20260905092524 19 114 1.6 4.8 0.00 0.00 0.00 90 1017.2
20260905092003 19 103 0.0 3.2 0.00 0.00 0.00 90 1017.2
20260905091503 19 103 0.0 3.2 0.00 0.00 0.00 90 1017.3
20260905091003 19 134 0.0 4.8 0.00 0.00 0.00 90 1017.3
20260905090503 20 167 0.0 4.8 0.00 0.00 0.00 90 1017.4
20260905090003 20 176 0.0 3.2 0.00 0.00 0.00 90 1017.4
20260905085503 20 176 0.0 3.2 0.00 0.00 0.00 90 1017.4
20260905085024 20 176 0.0 3.2 0.00 0.00 0.00 90 1017.3
20260905084503 20 176 0.0 1.6 0.00 0.00 0.00 90 1017.5
20260905084003 20 176 0.0 1.6 0.00 0.00 0.00 90 1017.5
20260905083503 20 176 0.0 3.2 0.00 0.00 0.00 90 1017.6